Find NOAA 2

NORAD ID: 6235 Int'l Des: 1972-082 Owner: NOAA Country: US operational
LEOCIRCULARRETROGRADESSO

实时位置

正在加载3D地球...

关于 NOAA 2

正在加载描述...

即将过境

Passes for default location (London). Set your location on the main map for personalized predictions.

高度历史

Loading altitude history...

两行轨道根数

1 6235U 72082A 26104.32876816 -.00000030 00000-0 10335-3 0 9998
2 6235 102.0128 122.1908 0003679 293.5926 77.5556 12.53213000446956
Epoch: Apr 14, 2026 • Age: 14 hours

当前状态

高度 1454.7 km
速度 7.14 km/s
星下点 15.05°N, 131.19°E
类型 weather

Most Searched